SM4TUV Weather Reports


Display with metric or nautical units.
time (UTC)temp
F
wind
direction
speed
MPH
gust
MPH
rain 1hr
in
rain 24hr
in
rain mn
in
humidity
%
barometer
mb
20260507051730 40 40 4.0 5.0 0.00 0.00 0.00 52 981.5
20260507050831 39 10 4.0 5.0 0.00 0.00 0.00 52 981.4
20260507045930 40 65 3.0 4.0 0.00 0.00 0.00 51 981.3
20260507044130 39 101 3.0 4.0 0.00 0.00 0.00 53 981.0
20260507043230 37 61 4.0 4.0 0.00 0.00 0.00 56 981.0
20260507042331 37 65 4.0 6.0 0.00 0.00 0.00 56 980.9
20260507041430 37 66 4.0 4.0 0.00 0.00 0.00 56 981.0
20260507040530 36 90 5.0 5.0 0.00 0.00 0.00 58 980.8
20260507035630 36 86 4.0 5.0 0.00 0.00 0.00 58 980.9
20260507034730 35 93 4.0 5.0 0.00 0.00 0.00 59 980.7
20260507032030 33 93 4.0 5.0 0.00 0.00 0.00 65 980.5
20260507031131 32 120 4.0 4.0 0.00 0.00 0.00 66 980.5
20260507030230 31 119 4.0 4.0 0.00 0.00 0.00 68 980.5
20260507025331 31 121 3.0 4.0 0.00 0.00 0.00 69 980.4
20260507024431 31 102 3.0 4.0 0.00 0.00 0.00 68 980.4
20260507023530 32 89 3.0 4.0 0.00 0.00 0.00 66 980.4
20260507022630 33 85 2.0 4.0 0.00 0.00 0.00 64 980.5
20260507021730 34 96 1.0 2.0 0.00 0.00 0.00 61 980.4
20260507020831 35 139 1.0 2.0 0.00 0.00 0.00 60 980.4
20260507015930 36 117 2.0 3.0 0.00 0.00 0.00 59 980.2
20260507014131 36 133 4.0 5.0 0.00 0.00 0.00 61 980.1
20260507013230 35 125 4.0 5.0 0.00 0.00 0.00 62 980.1
20260507012330 35 113 3.0 4.0 0.00 0.00 0.00 64 980.1
20260507010530 34 52 1.0 2.0 0.00 0.00 0.00 67 979.9
20260507005630 34 150 1.0 2.0 0.00 0.00 0.00 67 979.8
20260507004730 34 181 2.0 3.0 0.00 0.00 0.00 69 979.7
20260507003831 33 181 3.0 3.0 0.00 0.00 0.00 70 979.8
20260507002030 35 334 2.0 2.0 0.00 0.00 0.00 63 979.5
20260507001131 38 123 3.0 4.0 0.00 0.00 0.00 59 979.4
20260506235330 38 120 4.0 5.0 0.00 0.00 0.00 59 979.0
20260506234430 38 94 4.0 4.0 0.00 0.00 0.00 58 979.1
20260506233530 38 77 4.0 5.0 0.00 0.00 0.00 58 979.0
20260506232630 38 87 4.0 5.0 0.00 0.00 0.00 59 979.0
20260506231730 38 89 4.0 6.0 0.00 0.00 0.00 60 979.0
20260506225030 37 90 3.0 4.0 0.00 0.00 0.00 65 978.9
20260506223230 37 45 4.0 5.0 0.00 0.00 0.00 64 978.8
20260506222330 39 30 1.0 4.0 0.00 0.00 0.00 61 978.8
20260506221430 39 100 2.0 2.0 0.00 0.00 0.00 60 978.7
20260506220530 40 125 1.0 2.0 0.00 0.00 0.00 58 978.6
20260506215630 40 94 2.0 3.0 0.00 0.00 0.00 58 978.5
20260506213831 41 13 2.0 4.0 0.00 0.00 0.00 58 978.6
20260506212930 41 130 3.0 4.0 0.00 0.00 0.00 56 978.5
20260506205331 42 86 2.0 3.0 0.00 0.00 0.00 57 978.6
20260506203530 42 34 4.0 6.0 0.00 0.00 0.00 59 978.3
20260506202630 43 160 4.0 5.0 0.00 0.00 0.00 55 978.2
20260506201730 43 171 5.0 8.0 0.00 0.00 0.00 56 978.2
20260506200831 44 175 8.0 8.0 0.00 0.00 0.00 53 978.1
20260506194131 43 151 6.0 8.0 0.00 0.00 0.00 56 978.0
20260506193230 44 169 6.0 8.0 0.00 0.00 0.00 55 978.0
20260506192331 44 172 7.0 9.0 0.00 0.00 0.00 54 978.2
20260506191430 45 164 5.0 8.0 0.00 0.00 0.00 51 978.0
20260506190530 46 142 7.0 11.0 0.00 0.00 0.00 47 977.9
20260506185630 46 184 6.0 8.0 0.00 0.00 0.00 45 977.9
20260506184730 47 228 7.0 8.0 0.00 0.00 0.00 42 977.9
20260506183831 48 251 8.0 15.0 0.00 0.00 0.00 34 977.8
20260506182030 48 204 5.0 8.0 0.00 0.00 0.00 37 977.5
20260506181131 48 223 9.0 12.0 0.00 0.00 0.00 38 977.6
20260506180230 48 213 8.0 15.0 0.00 0.00 0.00 38 977.7
20260506174430 48 127 4.0 4.0 0.00 0.00 0.00 38 977.5
20260506172630 49 248 2.0 5.0 0.00 0.00 0.00 35 977.4
20260506171730 49 76 2.0 3.0 0.00 0.00 0.00 32 977.4
20260506170831 49 285 5.0 10.0 0.00 0.00 0.00 32 977.2
20260506165930 50 307 5.0 10.0 0.00 0.00 0.00 32 977.2
20260506165030 50 232 4.0 7.0 0.00 0.00 0.00 34 977.2
20260506164130 50 198 5.0 8.0 0.00 0.00 0.00 31 977.2
20260506163230 50 275 6.0 10.0 0.00 0.00 0.00 34 977.2
20260506162330 51 269 5.0 8.0 0.00 0.00 0.00 33 977.2
20260506161430 51 231 7.0 11.0 0.00 0.00 0.00 32 977.2
20260506160530 51 197 7.0 10.0 0.00 0.00 0.00 32 977.2
20260506155630 51 242 5.0 8.0 0.00 0.00 0.00 28 977.0
20260506154730 51 260 3.0 5.0 0.00 0.00 0.00 27 977.1
20260506153830 51 198 5.0 8.0 0.00 0.00 0.00 30 977.3
20260506152930 52 191 6.0 8.0 0.00 0.00 0.00 31 977.2
20260506152030 51 190 8.0 10.0 0.00 0.00 0.00 31 977.3
20260506151130 51 206 10.0 14.0 0.00 0.00 0.00 33 977.1
20260506150230 51 212 10.0 14.0 0.00 0.00 0.00 31 977.2
20260506145330 52 195 6.0 7.0 0.00 0.00 0.00 27 977.3
20260506144430 53 225 7.0 10.0 0.00 0.00 0.00 26 977.4
20260506143530 54 209 7.0 8.0 0.00 0.00 0.00 25 977.4
20260506142630 53 213 6.0 9.0 0.00 0.00 0.00 27 977.4
20260506141730 53 215 7.0 9.0 0.00 0.00 0.00 25 977.4
20260506140831 53 273 4.0 10.0 0.00 0.00 0.00 26 977.5
20260506135930 55 261 4.0 6.0 0.00 0.00 0.00 26 977.6
20260506135030 54 304 5.0 8.0 0.00 0.00 0.00 27 977.7
20260506134130 53 328 4.0 7.0 0.00 0.00 0.00 29 977.6
20260506133230 51 291 6.0 8.0 0.00 0.00 0.00 28 977.7
20260506132330 52 271 6.0 9.0 0.00 0.00 0.00 28 977.9
20260506131431 53 295 6.0 8.0 0.00 0.00 0.00 28 978.0
20260506130530 54 286 8.0 9.0 0.00 0.00 0.00 26 978.0
20260506125630 52 223 10.0 14.0 0.00 0.00 0.00 26 978.0
20260506124730 54 192 9.0 11.0 0.00 0.00 0.00 25 978.0
20260506123830 54 175 8.0 14.0 0.00 0.00 0.00 26 977.9
20260506122030 51 244 7.0 9.0 0.00 0.00 0.00 29 978.4
20260506121131 53 188 8.0 9.0 0.00 0.00 0.00 28 978.2
20260506120230 53 219 9.0 11.0 0.00 0.00 0.00 29 978.4
20260506115330 53 237 9.0 15.0 0.00 0.00 0.00 27 978.4
20260506114430 53 231 6.0 11.0 0.00 0.00 0.00 29 978.3
20260506113530 51 205 9.0 11.0 0.00 0.00 0.00 28 978.3
20260506112630 52 185 7.0 12.0 0.00 0.00 0.00 30 978.5
20260506111730 51 209 7.0 12.0 0.00 0.00 0.00 27 978.5
20260506110831 51 203 7.0 11.0 0.00 0.00 0.00 30 978.6
20260506105930 52 200 8.0 15.0 0.00 0.00 0.00 29 978.6
20260506104131 50 297 6.0 8.0 0.00 0.00 0.00 32 978.8
20260506103230 48 268 7.0 9.0 0.00 0.00 0.00 32 978.9
20260506102330 48 272 5.0 8.0 0.00 0.00 0.00 34 978.9
20260506101430 48 285 5.0 7.0 0.00 0.00 0.00 33 979.0
20260506100530 49 256 7.0 11.0 0.00 0.00 0.00 31 979.0
20260506095630 50 271 6.0 11.0 0.00 0.00 0.00 31 979.1
20260506094730 50 246 6.0 9.0 0.00 0.00 0.00 32 979.1
20260506093831 49 224 7.0 11.0 0.00 0.00 0.00 31 979.4
20260506092930 50 234 5.0 8.0 0.00 0.00 0.00 33 979.1
20260506091130 49 276 5.0 8.0 0.00 0.00 0.00 33 979.4
20260506090230 48 291 5.0 8.0 0.00 0.00 0.00 35 979.3
20260506085330 48 195 6.0 13.0 0.00 0.00 0.00 33 979.6
20260506084430 48 195 6.0 13.0 0.00 0.00 0.00 30 979.5
20260506083530 48 209 5.0 8.0 0.00 0.00 0.00 32 979.6
20260506082630 46 223 6.0 9.0 0.00 0.00 0.00 36 979.7
20260506081730 46 247 6.0 8.0 0.00 0.00 0.00 39 979.6
20260506080831 44 284 6.0 7.0 0.00 0.00 0.00 42 979.7